This is the latest recevied weather packets stored in our database for station/object G4KVI. If no packets are shown the sender has not sent any weather packets the latest 10 day(s).
| Time | Temp. | Humidity | Pressure | Rain* | Wind** | Luminosity | Snow |
|---|---|---|---|---|---|---|---|
| 1777983668 | 14.44° C | 55% | 1015.6 hPa | 0 mm | - | 539 W/m² | - |
| 1777983368 | 14.44° C | 58% | 1015.5 hPa | 0 mm | - | 328 W/m² | - |
| 1777983068 | 14.44° C | 56% | 1015.6 hPa | 0 mm | - | 349 W/m² | - |
| 1777982768 | 14.44° C | 56% | 1015.6 hPa | 0 mm | - | 469 W/m² | - |
| 1777982468 | 14.44° C | 57% | 1015.7 hPa | 0 mm | - | 321 W/m² | - |
| 1777982168 | 13.89° C | 58% | 1015.7 hPa | 0 mm | - | 387 W/m² | - |
| 1777981868 | 13.89° C | 58% | 1015.7 hPa | 0 mm | - | 322 W/m² | - |
| 1777981568 | 14.44° C | 57% | 1015.5 hPa | 0 mm | - | 321 W/m² | - |
| 1777981268 | 15° C | 56% | 1015.6 hPa | 0 mm | - | 366 W/m² | - |
| 1777980968 | 14.44° C | 58% | 1015.8 hPa | 0 mm | - | 854 W/m² | - |
| 1777980668 | 14.44° C | 58% | 1016 hPa | 0 mm | - | 425 W/m² | - |
| 1777980368 | 13.89° C | 59% | 1016.2 hPa | 0 mm | - | 825 W/m² | - |
| 1777980068 | 13.33° C | 60% | 1015.8 hPa | 0 mm | - | 275 W/m² | - |
| 1777979768 | 13.33° C | 58% | 1015.9 hPa | 0 mm | - | 253 W/m² | - |
| 1777979468 | 13.33° C | 60% | 1016.1 hPa | 0 mm | - | 385 W/m² | - |
| 1777979168 | 13.33° C | 59% | 1016.1 hPa | 0 mm | - | 373 W/m² | - |
| 1777978868 | 13.89° C | 58% | 1015.9 hPa | 0 mm | - | 220 W/m² | - |
| 1777978568 | 13.89° C | 59% | 1016.2 hPa | 0 mm | - | 244 W/m² | - |
| 1777978268 | 13.33° C | 59% | 1016.1 hPa | 0 mm | - | 427 W/m² | - |
| 1777977968 | 13.33° C | 59% | 1015.9 hPa | 0 mm | - | 535 W/m² | - |
| 1777977668 | 13.89° C | 58% | 1015.7 hPa | 0 mm | - | 388 W/m² | - |
| 1777977368 | 13.33° C | 59% | 1016.1 hPa | 0 mm | - | 583 W/m² | - |
| 1777977068 | 13.33° C | 59% | 1016 hPa | 0 mm | - | 454 W/m² | - |
| 1777976768 | 13.89° C | 58% | 1016.2 hPa | 0 mm | - | 562 W/m² | - |
| 1777976468 | 13.89° C | 57% | 1016.4 hPa | 0 mm | - | 533 W/m² | - |
* Rain latest hour (hover to see other rain measurements)
** Current wind speed in m/s (hover to see current wind gust speed)